1534791600.38,6285,23.25,74596.0,7.55,-13.33,-13.61,0,*44
1534791601.63,6286,23.25,74598.3,7.55,-13.29,-13.61,0,*4C
1534791602.88,6287,23.25,74602.3,7.55,-13.33,-13.61,0,*46
1534791604.07,6288,23.31,74598.5,7.55,-13.15,-13.43,0,*4D
1534791605.27,6289,23.31,74598.8,7.55,-13.19,-13.51,0,*43
1534791606.49,6290,23.25,74598.8,7.55,-13.07,-13.33,0,*40
1534791607.77,6291,23.31,74600.5,7.53,-13.01,-13.29,0,*4A
1534791609.01,6292,23.31,74598.0,7.57,-12.75,-13.15,0,*40
1534791610.21,6293,23.25,74596.8,7.55,-12.93,-13.19,0,*47
1534791611.42,6294,23.25,74598.5,7.55,-12.89,-13.19,0,*4B
1534791612.64,6295,23.31,74602.8,7.55,-12.93,-13.33,0,*49
1534791613.87,6296,23.31,74600.3,7.55,-12.93,-13.29,0,*41
1534791615.11,6297,23.25,74598.5,7.55,-13.01,-13.29,0,*4A
1534791616.33,6298,23.25,74602.3,7.57,-12.89,-13.15,0,*49
1534791617.53,6299,23.25,74600.3,7.55,-12.93,-13.19,0,*4D
1534791618.76,6300,23.25,74596.8,7.55,-12.93,-13.33,0,*44
1534791619.98,6301,23.31,74600.8,7.55,-13.01,-13.43,0,*48
1534791621.2,6302,23.25,74596.3,7.57,-12.89,-13.23,0,*4E
1534791622.39,6303,23.25,74598.0,7.55,-13.07,-13.43,0,*4C
1534791623.6,6304,23.25,74598.5,7.57,-13.11,-13.47,0,*4A
1534791624.87,6305,23.25,74598.8,7.57,-13.01,-13.33,0,*49
1534791626.06,6306,23.31,74600.8,7.55,-13.15,-13.43,0,*4A
1534791627.26,6307,23.25,74596.8,7.55,-13.19,-13.51,0,*44
1534791628.46,6308,23.25,74600.0,7.55,-13.19,-13.47,0,*4C
1534791629.68,6309,23.31,74602.8,7.55,-13.29,-13.51,0,*49
1534791630.88,6310,23.25,74598.0,7.55,-13.19,-13.55,0,*46
1534791632.07,6311,23.25,74596.0,7.55,-13.07,-13.43,0,*4F
1534791633.29,6312,23.25,74596.3,7.57,-13.11,-13.43,0,*49
1534791634.47,6313,23.25,74598.0,7.55,-13.15,-13.47,0,*4A
1534791635.66,6314,23.31,74598.0,7.55,-13.15,-13.43,0,*49
1534791636.91,6315,23.25,74596.3,7.55,-13.01,-13.29,0,*41
1534791638.11,6316,23.25,74596.3,7.55,-12.89,-13.19,0,*40
1534791639.31,6317,23.25,74594.5,7.55,-12.89,-13.15,0,*4D
1534791640.5,6318,23.31,74600.0,7.55,-12.89,-13.07,0,*41
1534791641.74,6319,23.25,74596.3,7.57,-12.83,-13.15,0,*4B
1534791643.0,6320,23.25,74596.8,7.57,-12.75,-13.29,0,*47
1534791644.21,6321,23.25,74596.8,7.55,-12.93,-13.19,0,*4F
1534791645.43,6322,23.25,74594.8,7.55,-12.93,-13.29,0,*4F
1534791646.62,6323,23.25,74598.5,7.55,-13.15,-13.43,0,*4D
1534791647.81,6324,23.25,74598.8,7.55,-13.15,-13.43,0,*4A
1534791649.01,6325,23.25,74596.0,7.55,-13.11,-13.43,0,*4F
1534791650.2,6326,23.25,74596.8,7.55,-13.15,-13.51,0,*4B
1534791651.42,6327,23.25,74596.8,7.55,-13.29,-13.51,0,*45
1534791652.64,6328,23.25,74598.0,7.57,-13.23,-13.55,0,*46
1534791653.89,6329,23.25,74600.5,7.55,-13.29,-13.61,0,*48
1534791655.12,6330,23.25,74598.8,7.55,-13.19,-13.61,0,*43
1534791656.33,6331,23.25,74598.0,7.57,-13.15,-13.55,0,*4B
1534791657.56,6332,23.25,74600.8,7.55,-13.29,-13.65,0,*46
1534791658.81,6333,23.25,74602.0,7.55,-13.29,-13.61,0,*43
1534791660.0,6334,23.25,74596.8,7.55,-13.19,-13.47,0,*43
1534791661.25,6335,23.25,74592.0,7.55,-13.01,-13.33,0,*48
1534791662.44,6336,23.25,74592.8,7.55,-13.15,-13.43,0,*49
1534791663.65,6337,23.31,74598.0,7.53,-13.15,-13.47,0,*4A
1534791664.87,6338,23.25,74596.8,7.53,-13.15,-13.51,0,*42
1534791666.09,6339,23.25,74594.5,7.53,-13.15,-13.51,0,*43
1534791667.34,6340,23.25,74598.8,7.53,-13.29,-13.51,0,*42
1534791668.59,6341,23.25,74596.0,7.53,-13.33,-13.51,0,*48
1534791669.84,6342,23.25,74598.5,7.53,-13.29,-13.51,0,*40
1534791671.07,6343,23.25,74596.3,7.53,-13.19,-13.51,0,*42
1534791672.27,6344,23.25,74598.5,7.51,-13.23,-13.51,0,*4E
1534791673.48,6345,23.25,74600.3,7.53,-13.15,-13.47,0,*4F
1534791674.68,6346,23.25,74596.8,7.51,-13.23,-13.51,0,*4C
1534791675.9,6347,23.25,74600.3,7.51,-13.33,-13.55,0,*48
1534791677.09,6348,23.25,74600.0,7.51,-13.23,-13.51,0,*42
1534791678.32,6349,23.25,74602.3,7.53,-13.19,-13.51,0,*48
1534791679.51,6350,23.25,74598.3,7.51,-13.11,-13.51,0,*4A
1534791680.73,6351,23.25,74600.8,7.53,-13.15,-13.51,0,*4D
1534791681.96,6352,23.25,74598.3,7.53,-13.15,-13.51,0,*4E
1534791683.15,6353,23.25,74602.3,7.51,-13.23,-13.55,0,*4C
1534791684.35,6354,23.25,74598.3,7.51,-13.23,-13.55,0,*4B
1534791685.57,6355,23.25,74602.0,7.51,-13.33,-13.65,0,*48
1534791686.78,6356,23.25,74602.8,7.51,-13.33,-13.65,0,*4B
1534791687.99,6357,23.25,74600.5,7.51,-13.33,-13.69,0,*46
1534791689.19,6358,23.25,74600.5,7.51,-13.23,-13.55,0,*47
1534791690.39,6359,23.31,74604.5,7.51,-13.23,-13.55,0,*46
1534791691.58,6360,23.25,74600.8,7.51,-13.23,-13.51,0,*48
1534791692.78,6361,23.25,74602.3,7.51,-13.23,-13.51,0,*49
1534791694.0,6362,23.25,74600.3,7.49,-13.15,-13.51,0,*46
1534791695.22,6363,23.25,74602.0,7.49,-13.23,-13.51,0,*42
1534791696.47,6364,23.25,74600.5,7.49,-13.29,-13.51,0,*4F
1534791697.74,6365,23.25,74602.8,7.49,-13.29,-13.61,0,*4D
1534791698.96,6366,23.25,74602.8,7.51,-13.33,-13.69,0,*44
1534791700.15,6367,23.25,74606.3,7.51,-13.23,-13.65,0,*48
1534791701.35,6368,23.25,74600.8,7.51,-13.19,-13.51,0,*49
1534791702.56,6369,23.25,74600.0,7.49,-13.15,-13.55,0,*49
1534791703.78,6370,23.25,74600.3,7.49,-13.15,-13.43,0,*46
1534791704.99,6371,23.25,74604.0,7.49,-13.15,-13.43,0,*47
1534791706.26,6372,23.25,74602.3,7.49,-13.01,-13.37,0,*42
1534791707.51,6373,23.25,74598.8,7.49,-13.01,-13.23,0,*46
1534791708.73,6374,23.25,74602.8,7.49,-12.97,-13.23,0,*4F
1534791709.96,6375,23.25,74602.3,7.49,-12.97,-13.23,0,*4E
1534791711.18,6376,23.25,74602.5,7.51,-12.79,-13.11,0,*45
1534791712.38,6377,23.25,74604.0,7.51,-12.93,-13.19,0,*48
1534791713.59,6378,23.25,74600.5,7.51,-12.83,-13.23,0,*4F
1534791714.81,6379,23.25,74604.5,7.51,-12.61,-12.93,0,*48
1534791716.06,6380,23.25,74602.3,7.49,-12.65,-12.89,0,*48
1534791717.31,6381,23.25,74604.5,7.53,-12.65,-12.93,0,*49
1534791718.56,6382,23.25,74602.8,7.53,-12.75,-12.93,0,*4B
1534791719.82,6383,23.25,74606.3,7.53,-12.71,-12.97,0,*4A
1534791721.07,6384,23.25,74602.8,7.53,-12.65,-12.93,0,*4C
1534791722.32,6385,23.25,74600.5,7.53,-12.65,-12.93,0,*4D
1534791723.56,6386,23.25,74606.8,7.55,-12.65,-13.01,0,*42
1534791724.78,6387,23.25,74600.5,7.53,-12.89,-13.15,0,*42
1534791726.03,6388,23.25,74600.5,7.53,-12.79,-13.15,0,*42
1534791727.27,6389,23.25,74602.3,7.53,-12.79,-13.07,0,*40
1534791728.49,6390,23.25,74600.5,7.53,-12.89,-13.15,0,*44
1534791729.74,6391,23.25,74602.3,7.53,-12.79,-13.07,0,*49
1534791730.99,6392,23.25,74600.3,7.53,-13.01,-13.43,0,*44
1534791732.19,6393,23.25,74600.5,7.55,-12.89,-13.19,0,*4D
1534791733.38,6394,23.25,74602.8,7.55,-12.89,-13.07,0,*45
1534791734.6,6395,23.25,74598.0,7.55,-12.79,-13.07,0,*4B
1534791735.83,6396,23.25,74602.0,7.55,-12.75,-13.07,0,*44
1534791737.02,6397,23.25,74598.8,7.55,-12.89,-13.15,0,*45
1534791738.24,6398,23.25,74600.0,7.55,-12.93,-13.29,0,*4E
1534791739.44,6399,23.25,74602.8,7.55,-12.93,-13.07,0,*43
1534791740.63,6400,23.25,74598.8,7.55,-12.93,-13.43,0,*44
1534791741.88,6401,23.25,74600.8,7.55,-13.01,-13.33,0,*48
1534791743.14,6402,23.25,74598.8,7.55,-13.01,-13.33,0,*4B
1534791744.38,6403,23.25,74602.8,7.57,-12.89,-13.29,0,*42
1534791745.6,6404,23.25,74600.5,7.55,-12.93,-13.29,0,*4C
1534791746.82,6405,23.25,74600.3,7.55,-13.07,-13.29,0,*41
1534791748.06,6406,23.25,74602.8,7.57,-13.11,-13.37,0,*48
1534791749.25,6407,23.25,74602.3,7.55,-13.07,-13.43,0,*4F
1534791750.5,6408,23.25,74602.8,7.55,-13.01,-13.33,0,*41
1534791751.75,6409,23.25,74600.8,7.55,-13.01,-13.33,0,*40
1534791752.98,6410,23.25,74600.3,7.55,-12.93,-13.33,0,*42
1534791754.22,6411,23.25,74600.3,7.55,-13.01,-13.29,0,*42
1534791755.47,6412,23.25,74600.5,7.55,-13.01,-13.33,0,*4A
1534791756.72,6413,23.25,74602.8,7.55,-13.01,-13.29,0,*40
1534791757.92,6414,23.25,74600.3,7.55,-12.93,-13.15,0,*42
1534791759.13,6415,23.25,74602.8,7.55,-12.93,-13.19,0,*4F
1534791760.32,6416,23.25,74604.5,7.55,-12.89,-13.23,0,*4E
1534791761.54,6417,23.25,74606.5,7.55,-13.07,-13.29,0,*42
1534791762.75,6418,23.25,74604.0,7.55,-12.93,-13.19,0,*42
1534791763.94,6419,23.25,74606.5,7.55,-13.15,-13.43,0,*43
1534791765.13,6420,23.25,74602.8,7.55,-13.15,-13.47,0,*4D
1534791766.31,6421,23.25,74602.5,7.55,-13.15,-13.47,0,*4C
1534791767.53,6422,23.25,74606.0,7.55,-13.15,-13.33,0,*4C
1534791768.75,6423,23.25,74600.0,7.55,-13.07,-13.33,0,*4E
1534791769.96,6424,23.25,74606.0,7.55,-12.93,-13.19,0,*4D
1534791771.19,6425,23.25,74600.5,7.55,-13.01,-13.19,0,*46
1534791772.41,6426,23.25,74606.3,7.55,-13.01,-13.43,0,*4A
1534791773.61,6427,23.25,74606.8,7.55,-13.15,-13.51,0,*4D
1534791774.85,6428,23.25,74604.8,7.57,-12.83,-13.23,0,*4B
1534791776.09,6429,23.25,74606.5,7.57,-12.75,-13.15,0,*46
1534791777.28,6430,23.25,74606.0,7.55,-12.89,-13.15,0,*4F
1534791778.48,6431,23.25,74608.5,7.55,-12.89,-13.11,0,*4A
1534791779.72,6432,23.25,74606.8,7.57,-12.83,-13.11,0,*41
1534791780.96,6433,23.25,74604.8,7.57,-12.71,-12.89,0,*4D
1534791782.21,6434,23.25,74604.3,7.55,-12.75,-13.01,0,*4D
1534791783.45,6435,23.25,74606.0,7.55,-12.75,-13.01,0,*4C
1534791784.7,6436,23.25,74602.8,7.57,-12.71,-12.97,0,*47
1534791785.96,6437,23.25,74604.8,7.57,-12.71,-13.01,0,*48
1534791787.23,6438,23.25,74606.5,7.57,-12.71,-13.01,0,*47
1534791788.49,6439,23.25,74608.0,7.57,-12.71,-13.01,0,*46
1534791789.75,6440,23.25,74604.0,7.57,-12.83,-13.01,0,*45
1534791790.97,6441,23.25,74606.0,7.55,-12.79,-13.15,0,*46
1534791792.19,6442,23.25,74604.0,7.59,-12.75,-13.11,0,*41
1534791793.41,6443,23.25,74606.0,7.59,-12.83,-12.97,0,*46
1534791794.66,6444,23.25,74606.5,7.61,-12.71,-13.11,0,*48
1534791795.87,6445,23.25,74604.8,7.59,-12.79,-13.11,0,*4A
1534791797.11,6446,23.25,74604.5,7.57,-12.83,-13.23,0,*43
1534791798.33,6447,23.25,74608.3,7.57,-12.89,-13.15,0,*4D
1534791799.54,6448,23.25,74606.0,7.57,-12.89,-13.11,0,*46
1534791800.77,6449,23.25,74600.5,7.57,-12.97,-13.23,0,*49
1534791801.98,6450,23.25,74606.3,7.59,-12.83,-13.11,0,*4B
1534791803.18,6451,23.25,74600.3,7.59,-12.93,-13.19,0,*43
1534791804.38,6452,23.25,74602.5,7.59,-12.97,-13.23,0,*4D
1534791805.58,6453,23.25,74606.5,7.59,-12.93,-13.19,0,*41
1534791806.8,6454,23.25,74606.5,7.59,-12.83,-13.11,0,*4F
1534791808.01,6455,23.25,74604.5,7.59,-12.79,-13.07,0,*4C
1534791809.21,6456,23.25,74604.8,7.59,-12.93,-13.19,0,*44
1534791810.44,6457,23.25,74604.5,7.61,-12.97,-13.19,0,*4A
1534791811.64,6458,23.25,74606.5,7.59,-12.93,-13.23,0,*43
1534791812.84,6459,23.25,74604.3,7.59,-12.97,-13.23,0,*46
1534791814.05,6460,23.25,74604.8,7.59,-12.83,-13.07,0,*4F
1534791815.25,6461,23.25,74600.8,7.59,-12.93,-13.19,0,*40
1534791816.45,6462,23.25,74596.3,7.59,-12.93,-13.19,0,*43
1534791817.65,6463,23.25,74598.0,7.59,-13.07,-13.23,0,*47
1534791818.84,6464,23.25,74594.8,7.59,-13.11,-13.43,0,*41
1534791820.05,6465,23.25,74598.0,7.59,-13.07,-13.37,0,*44
1534791821.24,6466,23.25,74598.5,7.59,-13.07,-13.23,0,*42
1534791822.46,6467,23.25,74592.8,7.59,-13.07,-13.33,0,*42
1534791823.69,6468,23.25,74592.8,7.61,-12.97,-13.23,0,*4F
1534791824.93,6469,23.25,74592.5,7.61,-13.07,-13.33,0,*47
1534791826.14,6470,23.25,74594.5,7.59,-12.93,-13.19,0,*40
1534791827.36,6471,23.25,74594.8,7.61,-13.07,-13.23,0,*4F
1534791828.55,6472,23.25,74596.0,7.59,-13.07,-13.23,0,*47
1534791829.77,6473,23.25,74596.3,7.59,-13.07,-13.33,0,*47
1534791830.99,6474,23.25,74598.5,7.59,-13.07,-13.37,0,*44
1534791832.2,6475,23.25,74596.5,7.59,-13.07,-13.37,0,*45
1534791833.39,6476,23.25,74596.0,7.59,-13.07,-13.23,0,*43
1534791834.61,6477,23.25,74596.0,7.59,-13.07,-13.33,0,*43
1534791835.83,6478,23.25,74592.3,7.59,-12.83,-13.19,0,*49
1534791837.08,6479,23.25,74590.3,7.61,-12.79,-13.11,0,*4E
1534791838.32,6480,23.25,74592.3,7.61,-12.83,-13.11,0,*4D
1534791839.54,6481,23.25,74592.8,7.59,-12.83,-13.19,0,*4F
1534791840.76,6482,23.25,74594.0,7.59,-13.07,-13.33,0,*49
1534791841.95,6483,23.25,74592.3,7.59,-13.07,-13.43,0,*4F
1534791843.15,6484,23.25,74596.8,7.59,-13.19,-13.43,0,*47
1534791844.36,6485,23.25,74592.8,7.59,-13.11,-13.37,0,*4D
1534791845.56,6486,23.25,74592.3,7.59,-13.19,-13.43,0,*45
1534791846.77,6487,23.25,74596.8,7.59,-13.11,-13.37,0,*4F
1534791847.99,6488,23.25,74596.8,7.59,-13.07,-13.33,0,*43
1534791849.18,6489,23.25,74598.8,7.59,-13.07,-13.43,0,*45
1534791850.37,6490,23.25,74600.8,7.59,-13.11,-13.43,0,*4A
1534791851.57,6491,23.25,74606.0,7.59,-13.19,-13.51,0,*40
1534791852.76,6492,23.25,74604.5,7.59,-13.19,-13.43,0,*40
1534791853.97,6493,23.25,74600.5,7.57,-13.11,-13.43,0,*47
1534791855.19,6494,23.25,74602.8,7.57,-13.11,-13.43,0,*40
1534791856.4,6495,23.25,74606.5,7.57,-13.11,-13.43,0,*41
1534791857.64,6496,23.25,74606.0,7.57,-13.11,-13.37,0,*41
1534791858.88,6497,23.25,74602.3,7.57,-13.11,-13.37,0,*40
1534791860.06,6498,23.25,74604.0,7.55,-13.15,-13.47,0,*4E
1534791861.3,6499,23.25,74606.8,7.57,-13.11,-13.37,0,*4E
1534791862.57,6500,23.25,74604.8,7.57,-13.01,-13.37,0,*4E
1534791863.81,6501,23.25,74604.3,7.57,-13.11,-13.29,0,*41
1534791865.05,6502,23.25,74600.0,7.57,-13.11,-13.37,0,*4D
1534791866.29,6503,23.25,74602.8,7.57,-13.11,-13.37,0,*4C
1534791867.5,6504,23.25,74598.3,7.57,-13.11,-13.47,0,*4C
1534791868.71,6505,23.25,74598.5,7.57,-13.15,-13.47,0,*49
1534791869.91,6506,23.25,74600.0,7.55,-13.19,-13.51,0,*43
1534791871.11,6507,23.25,74602.8,7.55,-13.19,-13.51,0,*42
1534791872.31,6508,23.25,74596.8,7.55,-13.19,-13.51,0,*4D
1534791873.52,6509,23.25,74606.3,7.57,-13.15,-13.47,0,*45
1534791874.73,6510,23.25,74604.5,7.57,-13.23,-13.47,0,*48
1534791875.95,6511,23.25,74602.3,7.57,-13.15,-13.51,0,*4B
1534791877.14,6512,23.25,74600.3,7.55,-13.43,-13.51,0,*49
1534791878.34,6513,23.25,74604.0,7.55,-13.19,-13.47,0,*40
1534791879.56,6514,23.25,74602.3,7.55,-13.07,-13.33,0,*4B
1534791880.79,6515,23.25,74604.0,7.55,-12.93,-13.33,0,*46
1534791882.0,6516,23.25,74606.3,7.57,-12.89,-13.15,0,*48
1534791883.22,6517,23.25,74604.8,7.55,-12.89,-13.29,0,*44
1534791884.44,6518,23.25,74602.8,7.55,-13.15,-13.33,0,*44
1534791885.68,6519,23.25,74604.3,7.57,-13.01,-13.43,0,*45
1534791886.9,6520,23.25,74604.5,7.55,-13.07,-13.33,0,*4C
1534791888.12,6521,23.25,74600.5,7.57,-13.11,-13.43,0,*4F
1534791889.3,6522,23.25,74598.0,7.55,-13.15,-13.47,0,*4E
1534791890.53,6523,23.25,74598.0,7.55,-13.29,-13.51,0,*47
1534791891.78,6524,23.25,74600.5,7.53,-13.29,-13.51,0,*46
1534791893.03,6525,23.25,74598.8,7.53,-13.33,-13.51,0,*4C
1534791894.25,6526,23.25,74602.5,7.55,-13.29,-13.51,0,*42
1534791895.44,6527,23.25,74600.3,7.55,-13.19,-13.47,0,*47
1534791896.65,6528,23.25,74600.3,7.55,-13.19,-13.51,0,*4F
1534791897.87,6529,23.25,74602.0,7.55,-13.29,-13.51,0,*4D
1534791899.09,6530,23.25,74602.8,7.55,-13.29,-13.65,0,*42
1534791900.37,6531,23.25,74600.8,7.53,-13.29,-13.61,0,*41
1534791901.64,6532,23.25,74602.3,7.53,-13.29,-13.61,0,*42
1534791902.84,6533,23.25,74602.0,7.51,-13.19,-13.55,0,*45
1534791904.06,6534,23.25,74600.5,7.53,-13.15,-13.51,0,*48
1534791905.28,6535,23.25,74600.3,7.53,-13.19,-13.47,0,*42
1534791906.5,6536,23.25,74600.8,7.53,-13.15,-13.51,0,*4A
1534791907.72,6537,23.25,74600.5,7.53,-13.15,-13.43,0,*48
1534791908.93,6538,23.25,74602.8,7.53,-13.15,-13.43,0,*47
1534791910.16,6539,23.25,74602.5,7.53,-13.19,-13.51,0,*49
1534791911.38,6540,23.25,74602.3,7.53,-13.19,-13.47,0,*40
1534791912.66,6541,23.25,74600.0,7.53,-13.01,-13.33,0,*4B
1534791913.91,6542,23.25,74600.0,7.53,-13.15,-13.33,0,*4D
1534791915.18,6543,23.25,74600.5,7.53,-13.01,-13.33,0,*49
1534791916.41,6544,23.25,74600.0,7.51,-13.19,-13.33,0,*45
1534791917.62,6545,23.25,74602.0,7.51,-13.11,-13.37,0,*48
1534791918.84,6546,23.25,74598.8,7.51,-13.07,-13.33,0,*48
1534791920.06,6547,23.25,74602.3,7.51,-13.07,-13.37,0,*4D
1534791921.25,6548,23.25,74600.5,7.51,-13.11,-13.47,0,*42
1534791922.46,6549,23.25,74598.0,7.53,-13.15,-13.43,0,*41
1534791923.69,6550,23.25,74602.3,7.53,-13.19,-13.51,0,*46
1534791924.91,6551,23.25,74602.0,7.53,-13.19,-13.47,0,*40
1534791926.13,6552,23.25,74602.0,7.53,-13.19,-13.47,0,*43
1534791927.35,6553,23.25,74600.8,7.53,-13.07,-13.47,0,*4D
1534791928.54,6554,23.25,74602.3,7.51,-13.19,-13.47,0,*47
1534791929.76,6555,23.25,74600.5,7.53,-13.19,-13.47,0,*44
1534791930.97,6556,23.25,74602.0,7.51,-13.11,-13.37,0,*4A
1534791932.19,6557,23.25,74600.5,7.53,-13.15,-13.43,0,*4E
1534791933.38,6558,23.25,74600.8,7.51,-13.11,-13.47,0,*43
1534791934.57,6559,23.25,74602.8,7.51,-13.19,-13.55,0,*49
1534791935.79,6560,23.25,74602.3,7.53,-13.07,-13.43,0,*49
1534791936.99,6561,23.25,74600.3,7.51,-13.19,-13.51,0,*46
1534791938.21,6562,23.25,74602.8,7.51,-13.11,-13.37,0,*4D
1534791939.43,6563,23.25,74600.8,7.51,-12.97,-13.33,0,*47
1534791940.68,6564,23.25,74602.8,7.53,-12.93,-13.29,0,*4D
1534791941.9,6565,23.25,74606.5,7.51,-13.11,-13.37,0,*4A
1534791943.15,6566,23.25,74600.5,7.53,-13.07,-13.33,0,*48
1534791944.34,6567,23.25,74602.3,7.51,-12.97,-13.23,0,*42
1534791945.55,6568,23.25,74604.0,7.51,-12.93,-13.19,0,*40
1534791946.76,6569,23.25,74602.8,7.51,-13.07,-13.37,0,*41
1534791947.95,6570,23.25,74598.5,7.51,-13.19,-13.47,0,*41
1534791949.17,6571,23.25,74598.3,7.53,-13.19,-13.47,0,*42
1534791950.39,6572,23.25,74600.3,7.53,-13.15,-13.47,0,*4D
1534791951.58,6573,23.25,74600.8,7.51,-13.19,-13.51,0,*45
1534791952.78,6574,23.25,74606.0,7.51,-13.07,-13.23,0,*48
1534791953.96,6575,23.25,74598.8,7.51,-13.11,-13.47,0,*4C
1534791955.18,6576,23.25,74596.0,7.51,-13.07,-13.33,0,*4B
1534791956.39,6577,23.25,74598.8,7.51,-12.93,-13.19,0,*4E
1534791957.66,6578,23.25,74602.0,7.53,-13.01,-13.33,0,*41
1534791958.85,6579,23.25,74598.8,7.51,-13.19,-13.47,0,*48
1534791960.05,6580,23.25,74600.8,7.51,-13.19,-13.51,0,*49
1534791961.25,6581,23.25,74604.0,7.51,-13.19,-13.55,0,*4C
1534791962.47,6582,23.25,74598.0,7.51,-13.11,-13.37,0,*43
1534791963.66,6583,23.25,74602.3,7.51,-13.19,-13.47,0,*4D
1534791964.85,6584,23.25,74602.3,7.51,-13.07,-13.23,0,*47
1534791966.09,6585,23.25,74604.5,7.49,-13.11,-13.37,0,*4D
1534791967.28,6586,23.25,74606.3,7.51,-13.11,-13.47,0,*40
1534791968.48,6587,23.25,74602.0,7.51,-13.19,-13.51,0,*4E
1534791969.67,6588,23.25,74598.5,7.51,-13.07,-13.23,0,*4B
1534791970.89,6589,23.25,74600.8,7.51,-13.07,-13.33,0,*4B
1534791972.11,6590,23.25,74598.8,7.51,-12.97,-13.37,0,*4F
1534791973.31,6591,23.25,74600.3,7.51,-13.11,-13.23,0,*44
1534791974.52,6592,23.25,74602.0,7.51,-13.07,-13.37,0,*45
1534791975.72,6593,23.25,74602.3,7.51,-13.07,-13.23,0,*41
1534791976.91,6594,23.25,74604.8,7.51,-12.93,-13.23,0,*4A
1534791978.14,6595,23.25,74602.3,7.53,-12.93,-13.15,0,*4C
1534791979.38,6596,23.25,74602.8,7.53,-12.79,-13.07,0,*48
1534791980.6,6597,23.25,74602.8,7.51,-12.83,-13.19,0,*41
1534791981.83,6598,23.25,74600.3,7.53,-12.93,-13.07,0,*42
1534791983.04,6599,23.25,74602.8,7.51,-12.83,-13.11,0,*47
1534791984.24,6600,23.25,74602.3,7.55,-12.89,-13.15,0,*4E
1534791985.46,6601,23.25,74602.0,7.51,-13.07,-13.33,0,*48
1534791986.65,6602,23.25,74596.5,7.51,-13.19,-13.47,0,*47
1534791987.84,6603,23.25,74596.5,7.51,-13.19,-13.47,0,*46
1534791989.05,6604,23.25,74594.0,7.51,-13.15,-13.33,0,*4E
1534791990.25,6605,23.25,74600.8,7.51,-13.23,-13.55,0,*4A
1534791991.44,6606,23.25,74600.8,7.51,-13.11,-13.51,0,*4C
1534791992.64,6607,23.25,74602.3,7.51,-13.23,-13.55,0,*48
1534791993.84,6608,23.25,74600.5,7.51,-13.23,-13.51,0,*43
1534791995.09,6609,23.25,74596.8,7.53,-13.29,-13.51,0,*4A
1534791996.28,6610,23.25,74596.0,7.51,-13.23,-13.65,0,*4D
1534791997.5,6611,23.25,74600.3,7.51,-13.33,-13.65,0,*4D
1534791998.69,6612,23.25,74600.3,7.51,-13.23,-13.55,0,*4C
1534791999.88,6613,23.25,74596.8,7.51,-13.23,-13.47,0,*4E
1534792001.13,6614,23.25,74600.0,7.49,-13.11,-13.37,0,*46
1534792002.35,6615,23.25,74602.0,7.49,-13.15,-13.51,0,*43
1534792003.57,6616,23.25,74600.5,7.49,-13.23,-13.55,0,*41
1534792004.79,6617,23.25,74600.8,7.47,-13.23,-13.51,0,*4A
1534792006.01,6618,23.25,74598.8,7.49,-13.23,-13.55,0,*4F
1534792007.29,6619,23.25,74602.3,7.49,-13.29,-13.61,0,*43
1534792008.53,6620,23.25,74600.5,7.49,-13.29,-13.51,0,*4A
1534792009.8,6621,23.25,74602.0,7.47,-13.29,-13.61,0,*46
1534792011.07,6622,23.25,74600.5,7.47,-13.29,-13.61,0,*45
1534792012.31,6623,23.25,74602.0,7.47,-13.29,-13.55,0,*43
1534792013.55,6624,23.25,74602.0,7.47,-13.29,-13.55,0,*44
1534792014.8,6625,23.25,74600.8,7.47,-13.29,-13.55,0,*45
1534792016.02,6626,23.25,74602.5,7.47,-13.23,-13.51,0,*48
1534792017.23,6627,23.25,74602.8,7.47,-13.23,-13.55,0,*4D
1534792018.47,6628,23.25,74604.8,7.47,-13.11,-13.37,0,*47
1534792019.71,6629,23.25,74606.8,7.47,-13.11,-13.29,0,*49
1534792020.98,6630,23.25,74602.8,7.47,-13.01,-13.29,0,*40
1534792022.24,6631,23.25,74604.3,7.47,-13.01,-13.29,0,*41
1534792023.51,6632,23.25,74600.0,7.47,-13.01,-13.37,0,*4D
1534792024.77,6633,23.25,74602.3,7.47,-13.01,-13.37,0,*4C
1534792026.04,6634,23.25,74602.8,7.47,-13.01,-13.29,0,*44
1534792027.25,6635,23.25,74602.8,7.47,-13.11,-13.43,0,*48
1534792028.47,6636,23.25,74600.3,7.47,-13.23,-13.55,0,*4D
1534792029.68,6637,23.25,74600.5,7.47,-13.15,-13.43,0,*4E
1534792030.89,6638,23.25,74604.5,7.47,-13.15,-13.43,0,*41
1534792032.11,6639,23.25,74600.3,7.47,-13.23,-13.51,0,*46
1534792033.32,6640,23.25,74600.3,7.47,-13.23,-13.55,0,*4C
1534792034.57,6641,23.25,74600.3,7.43,-13.29,-13.55,0,*43
1534792035.83,6642,23.25,74600.3,7.43,-13.29,-13.61,0,*47
1534792037.05,6643,23.25,74600.3,7.47,-13.23,-13.55,0,*4F
1534792038.32,6644,23.25,74602.8,7.47,-13.01,-13.37,0,*4C
1534792039.58,6645,23.25,74600.5,7.47,-13.01,-13.29,0,*42
1534792040.8,6646,23.25,74602.3,7.47,-12.97,-13.15,0,*40
1534792042.03,6647,23.25,74600.3,7.43,-12.93,-13.19,0,*4D
1534792043.24,6648,23.25,74600.8,7.47,-12.97,-13.23,0,*4B
1534792044.46,6649,23.25,74602.8,7.47,-12.89,-13.11,0,*44
1534792045.67,6650,23.25,74600.8,7.47,-12.89,-13.15,0,*48
1534792046.89,6651,23.25,74600.3,7.49,-12.97,-13.15,0,*48
1534792048.11,6652,23.25,74602.0,7.47,-12.89,-13.23,0,*4F
1534792049.32,6653,23.25,74598.8,7.47,-12.97,-13.23,0,*41
1534792050.54,6654,23.25,74596.3,7.47,-12.97,-13.15,0,*43
1534792051.76,6655,23.25,74600.3,7.47,-12.89,-13.23,0,*48
1534792053.02,6656,23.25,74600.5,7.47,-13.01,-13.29,0,*40
1534792054.24,6657,23.25,74600.3,7.49,-12.97,-13.23,0,*4B
1534792055.47,6658,23.19,74596.8,7.49,-12.97,-13.23,0,*44
1534792056.74,6659,23.25,74602.0,7.49,-13.01,-13.37,0,*4E
1534792057.98,6660,23.25,74602.5,7.47,-13.11,-13.37,0,*4B
1534792059.19,6661,23.25,74598.5,7.47,-13.11,-13.43,0,*49
1534792060.4,6662,23.25,74598.0,7.49,-13.15,-13.55,0,*47
1534792061.67,6663,23.25,74602.3,7.47,-13.01,-13.29,0,*46
1534792062.89,6664,23.25,74602.3,7.47,-12.97,-13.23,0,*45
1534792064.11,6665,23.25,74602.8,7.47,-12.89,-13.23,0,*4B
1534792065.35,6666,23.25,74600.0,7.47,-13.01,-13.23,0,*49
1534792066.59,6667,23.25,74602.8,7.47,-13.01,-13.23,0,*48
1534792067.86,6668,23.25,74600.8,7.47,-13.01,-13.29,0,*4D
1534792069.1,6669,23.19,74598.8,7.47,-13.11,-13.37,0,*42
1534792070.36,6670,23.25,74602.8,7.47,-13.01,-13.37,0,*4B
1534792071.58,6671,23.25,74600.5,7.47,-13.15,-13.51,0,*4F
1534792072.81,6672,23.25,74600.3,7.47,-13.11,-13.37,0,*48
1534792074.05,6673,23.25,74602.8,7.47,-13.11,-13.37,0,*49
1534792075.27,6674,23.25,74602.8,7.49,-13.15,-13.43,0,*47
1534792076.48,6675,23.25,74602.3,7.47,-13.11,-13.43,0,*4C
1534792077.7,6676,23.25,74602.0,7.47,-13.23,-13.51,0,*4D
1534792078.91,6677,23.25,74600.0,7.43,-13.19,-13.55,0,*45
1534792080.13,6678,23.25,74606.0,7.43,-13.07,-13.43,0,*42
1534792081.33,6679,23.25,74602.0,7.43,-13.15,-13.47,0,*44
1534792082.55,6680,23.25,74604.0,7.43,-13.19,-13.55,0,*4D
1534792083.77,6681,23.25,74600.8,7.43,-13.19,-13.55,0,*4C
1534792084.98,6682,23.25,74606.3,7.43,-13.15,-13.43,0,*44
1534792086.22,6683,23.25,74602.8,7.43,-13.07,-13.33,0,*41
1534792087.43,6684,23.25,74602.3,7.43,-13.07,-13.43,0,*41
1534792088.63,6685,23.25,74602.3,7.43,-13.15,-13.43,0,*43
1534792089.84,6686,23.25,74602.0,7.43,-13.15,-13.47,0,*44
1534792091.05,6687,23.25,74600.5,7.43,-13.07,-13.43,0,*42
1534792092.23,6688,23.25,74602.8,7.41,-13.15,-13.47,0,*48
1534792093.43,6689,23.19,74600.3,7.43,-13.15,-13.47,0,*4B
1534792094.67,6690,23.19,74600.5,7.43,-12.93,-13.29,0,*44
1534792095.85,6691,23.19,74600.0,7.41,-13.15,-13.47,0,*40
1534792097.04,6692,23.25,74602.8,7.41,-13.19,-13.47,0,*4F
1534792098.22,6693,23.25,74604.5,7.41,-13.19,-13.47,0,*4E
1534792099.46,6694,23.19,74600.3,7.43,-13.29,-13.55,0,*4B
1534792100.68,6695,23.25,74606.8,7.41,-13.29,-13.55,0,*48
1534792101.9,6696,23.25,74602.8,7.41,-13.29,-13.55,0,*4B
1534792103.09,6697,23.25,74604.3,7.41,-13.19,-13.43,0,*4E
1534792104.28,6698,23.25,74606.0,7.41,-13.19,-13.55,0,*46